Meteo Giornale » Osservazioni meteo Brasile » Sao Paulo Aeropor-To

ore: 23:01 - Osservazioni Meteo Sao Paulo Aeropor-To
Lat. 23° 37' S Lon. 46° 39' W Alt. 803 metri s.l.m.

coperto America/Sao_Paulo

13 °C

Coperto

Temp. 24 Ore

12 °C

19 °C

Sud-Est

13 Km/h

Dew point 11 °C

Umidità 87 %

Visibilità  10 Km

Il sole sorge alle ore 05:53

Il sole tramonta alle ore 18:04

Data e Ora Cielo e Fenomeni T °C DP °C Um. % Pres. hPa Vis. km Vento km/h
Ieri h: 23:01 coperto Coperto 13 11 87 1022 10 SE 13
Ieri h: 23:00 coperto Coperto 13 11 87 1022 10 S/SE 14.8
Ieri h: 22:00 molto_nuvoloso Molto Nuvoloso 13 10 81 1023 10 SE 13
Ieri h: 21:00 molto_nuvoloso Molto Nuvoloso 13 11 87 1022 10 S/SE 16.7
Ieri h: 20:00 coperto Coperto 14 11 82 1022 9 S/SE 18.5
Ieri h: 19:00 coperto Coperto 14 11 82 1022 10 SE 18.5
Ieri h: 18:00 molto_nuvoloso Molto Nuvoloso 14 10 76 1022 10 S/SE 22.2
Ieri h: 17:00 nuvoloso Nuvoloso 16 11 72 1021 10 S/SE 25.9
Ieri h: 16:00 poco_nuvoloso Poco Nuvoloso 17 10 63 1021 10 S/SE 24
Ieri h: 15:00 poco_nuvoloso Poco Nuvoloso 18 10 59 1022 10 S/SE 25.9
Ieri h: 14:00 nuvoloso Nuvoloso 18 11 63 1022 10 S/SE 22.2
Ieri h: 13:00 poco_nuvoloso Poco Nuvoloso 19 10 55 1023 10 SE 16.7
Ieri h: 12:00 nuvoloso Nuvoloso 18 9 55 1024 10 S/SE 20.3
Ieri h: 11:00 molto_nuvoloso Molto Nuvoloso 16 9 63 1024 10 E/SE 18.5
Ieri h: 10:00 coperto Coperto 15 9 67 1024 10 E/SE 20.3
Ieri h: 09:00 coperto Coperto 14 9 71 1024 10 E/SE 14.8
Ieri h: 08:00 coperto Coperto 13 9 76 1024 10 E/SE 14.8
Ieri h: 07:00 coperto Coperto 13 8 71 1023 10 SE 16.7
Ieri h: 06:00 molto_nuvoloso Molto Nuvoloso 12 8 76 1023 10 SE 16.7
Ieri h: 05:00 coperto Coperto 12 7 71 1022 10 SE 14.8
Ieri h: 04:00 molto_nuvoloso Molto Nuvoloso 12 7 71 1022 10 SE 18.5
Ieri h: 03:00 nuvoloso Nuvoloso 12 9 81 1022 10 SE 18.5
Ieri h: 02:00 nuvoloso Nuvoloso 12 9 81 1022 10 SE 14.8
Ieri h: 00:44 nuvoloso Nuvoloso 12 10 87 1023 10 SE 14.8